BTK8763 WAMM-WAAA

Flight info

Callsign BTK8763
Flight time 1h 49m
Altitude 38000
Route LUANG W32 VENRU
Aircraft A320/M-SDE3FGHIRWY/LB1

Departure

Time 2026-04-21 04:35
Airport Sam Ratulangi International Airport (WAMM)

Arrival

Time 2026-04-21 06:25
Airport Sultan Hasanuddin International Airport (WAAA)
Time Latitude Longitude Altitude Speed Heading
2026-04-21 04:14 1.54319 124.92343 336 ft 0 kts 310°
2026-04-21 04:26 1.54315 124.92348 333 ft 2 kts 310°
2026-04-21 04:26 1.54302 124.92363 333 ft 3 kts 312°
2026-04-21 04:26 1.54288 124.92378 334 ft 3 kts 314°
2026-04-21 04:27 1.54273 124.92392 336 ft 3 kts 318°
2026-04-21 04:27 1.54258 124.92405 334 ft 3 kts 327°
2026-04-21 04:27 1.54240 124.92414 334 ft 3 kts 349°
2026-04-21 04:27 1.54231 124.92415 332 ft 0 kts
2026-04-21 04:32 1.54238 124.92415 334 ft 4 kts 352°
2026-04-21 04:32 1.54224 124.92399 332 ft 7 kts 169°
2026-04-21 04:32 1.54158 124.92413 332 ft 10 kts 180°
2026-04-21 04:32 1.54089 124.92410 336 ft 10 kts 183°
2026-04-21 04:33 1.54015 124.92408 336 ft 11 kts 173°
2026-04-21 04:33 1.53947 124.92432 334 ft 10 kts 171°
2026-04-21 04:33 1.53875 124.92432 336 ft 10 kts 181°
2026-04-21 04:33 1.53802 124.92430 336 ft 11 kts 181°
2026-04-21 04:34 1.53748 124.92467 334 ft 10 kts 108°
2026-04-21 04:34 1.53745 124.92544 332 ft 11 kts 79°
2026-04-21 04:34 1.53767 124.92590 335 ft 7 kts 17°
2026-04-21 04:34 1.53812 124.92595 337 ft 0 kts 358°
2026-04-21 04:35 1.53893 124.92597 338 ft 42 kts
2026-04-21 04:35 1.54447 124.92616 338 ft 112 kts
2026-04-21 04:35 1.55421 124.92637 343 ft 163 kts
2026-04-21 04:35 1.56633 124.92621 1037 ft 164 kts
2026-04-21 04:36 1.57795 124.92540 1733 ft 168 kts 354°
2026-04-21 04:36 1.58958 124.92303 2303 ft 176 kts 351°
2026-04-21 04:36 1.60222 124.91997 2590 ft 197 kts 349°
2026-04-21 04:36 1.61636 124.91640 2847 ft 222 kts 349°
2026-04-21 04:37 1.63219 124.91237 3276 ft 247 kts 349°
2026-04-21 04:37 1.64956 124.90792 3770 ft 266 kts 348°
2026-04-21 04:37 1.66758 124.90279 4559 ft 273 kts 339°
2026-04-21 04:37 1.68320 124.89159 5378 ft 282 kts 315°
2026-04-21 04:38 1.69619 124.87678 6265 ft 284 kts 313°
2026-04-21 04:38 1.70919 124.86177 7079 ft 286 kts 313°
2026-04-21 04:38 1.72229 124.84665 7880 ft 289 kts 311°
2026-04-21 04:38 1.73557 124.83135 8673 ft 293 kts 311°
2026-04-21 04:39 1.74903 124.81591 9460 ft 297 kts 311°
2026-04-21 04:39 1.76289 124.80005 10172 ft 302 kts 310°
2026-04-21 04:39 1.77722 124.78365 10419 ft 325 kts 310°
2026-04-21 04:39 1.79265 124.76595 10616 ft 347 kts 310°
2026-04-21 04:40 1.80646 124.74574 11079 ft 356 kts 297°
2026-04-21 04:40 1.81554 124.72292 11674 ft 361 kts 284°
2026-04-21 04:40 1.81949 124.69781 12294 ft 363 kts 270°
2026-04-21 04:40 1.81878 124.67282 12919 ft 366 kts 265°
2026-04-21 04:41 1.81757 124.64696 13553 ft 370 kts 266°
2026-04-21 04:41 1.81639 124.62118 14119 ft 373 kts 266°
2026-04-21 04:41 1.81523 124.59512 14669 ft 376 kts 266°
2026-04-21 04:41 1.81408 124.56888 15223 ft 379 kts 266°
2026-04-21 04:42 1.81291 124.54245 15774 ft 382 kts 266°
2026-04-21 04:42 1.81171 124.51579 16312 ft 385 kts 266°
2026-04-21 04:42 1.81049 124.48891 16853 ft 388 kts 265°
2026-04-21 04:42 1.80929 124.46191 17383 ft 391 kts 266°
2026-04-21 04:43 1.80810 124.43464 17913 ft 394 kts 266°
2026-04-21 04:43 1.80691 124.40723 18388 ft 396 kts 266°
2026-04-21 04:43 1.80569 124.37959 18803 ft 400 kts 266°
2026-04-21 04:43 1.80445 124.35168 19206 ft 404 kts 266°
2026-04-21 04:44 1.80319 124.32355 19597 ft 407 kts 266°
2026-04-21 04:44 1.80188 124.29508 19969 ft 412 kts 266°
2026-04-21 04:44 1.79947 124.26655 20359 ft 414 kts 259°
2026-04-21 04:44 1.79137 124.23897 20751 ft 415 kts 245°
2026-04-21 04:45 1.77742 124.21379 21117 ft 416 kts 232°
2026-04-21 04:45 1.75828 124.19211 21501 ft 416 kts 221°
2026-04-21 04:45 1.73502 124.17504 21870 ft 417 kts 209°
2026-04-21 04:45 1.70972 124.16064 22241 ft 419 kts 207°
2026-04-21 04:46 1.68430 124.14622 22616 ft 422 kts 207°
2026-04-21 04:46 1.65867 124.13168 22983 ft 425 kts 208°
2026-04-21 04:46 1.63287 124.11702 23338 ft 428 kts 208°
2026-04-21 04:46 1.60688 124.10224 23643 ft 431 kts 207°
2026-04-21 04:47 1.58042 124.08717 23942 ft 433 kts 208°
2026-04-21 04:47 1.55449 124.07237 24203 ft 436 kts 208°
2026-04-21 04:47 1.52808 124.05727 24496 ft 439 kts 208°
2026-04-21 04:47 1.50111 124.04188 24803 ft 442 kts 208°
2026-04-21 04:48 1.47437 124.02665 25101 ft 444 kts 208°
2026-04-21 04:48 1.44745 124.01135 25386 ft 446 kts 208°
2026-04-21 04:48 1.42038 123.99597 25679 ft 448 kts 208°
2026-04-21 04:48 1.39322 123.98053 25969 ft 450 kts 208°
2026-04-21 04:49 1.36590 123.96503 26244 ft 453 kts 208°
2026-04-21 04:49 1.33844 123.94947 26519 ft 455 kts 207°
2026-04-21 04:49 1.31084 123.93383 26818 ft 456 kts 208°
2026-04-21 04:49 1.28318 123.91811 27086 ft 459 kts 208°
2026-04-21 04:50 1.25536 123.90227 27360 ft 461 kts 208°
2026-04-21 04:50 1.22706 123.88704 27623 ft 462 kts 203°
2026-04-21 04:50 1.19679 123.87602 27890 ft 463 kts 193°
2026-04-21 04:50 1.16514 123.87018 28146 ft 463 kts 184°
2026-04-21 04:51 1.13286 123.86898 28408 ft 464 kts 179°
2026-04-21 04:51 1.10054 123.86846 28661 ft 466 kts 179°
2026-04-21 04:51 1.06794 123.86784 28914 ft 468 kts 180°
2026-04-21 04:51 1.03537 123.86717 29158 ft 470 kts 180°
2026-04-21 04:52 1.01326 123.86669 29325 ft 472 kts 180°
2026-04-21 04:52 0.98024 123.86598 29565 ft 474 kts 180°
2026-04-21 04:52 0.94729 123.86532 29803 ft 476 kts 179°
2026-04-21 04:52 0.91458 123.86473 30012 ft 478 kts 179°
2026-04-21 04:53 0.88090 123.86412 30222 ft 479 kts 180°
2026-04-21 04:53 0.84794 123.86350 30434 ft 480 kts 180°
2026-04-21 04:53 0.81444 123.86285 30739 ft 479 kts 180°
2026-04-21 04:53 0.78124 123.86217 31052 ft 478 kts 180°
2026-04-21 04:54 0.74757 123.86147 31376 ft 478 kts 180°
2026-04-21 04:54 0.71434 123.86079 31682 ft 477 kts 180°
2026-04-21 04:54 0.68119 123.86013 31993 ft 476 kts 180°
2026-04-21 04:54 0.64813 123.85950 32298 ft 475 kts 180°
2026-04-21 04:55 0.61509 123.85892 32610 ft 474 kts 180°
2026-04-21 04:55 0.58213 123.85837 32930 ft 474 kts 180°
2026-04-21 04:55 0.54918 123.85781 33253 ft 473 kts 180°
2026-04-21 04:55 0.51630 123.85719 33569 ft 472 kts 180°
2026-04-21 04:56 0.48346 123.85652 33883 ft 472 kts 180°
2026-04-21 04:56 0.45063 123.85585 34182 ft 471 kts 180°
2026-04-21 04:56 0.41795 123.85519 34472 ft 470 kts 180°
2026-04-21 04:56 0.38520 123.85457 34728 ft 469 kts 180°
2026-04-21 04:57 0.35266 123.85395 34995 ft 468 kts 180°
2026-04-21 04:57 0.32008 123.85332 35278 ft 467 kts 180°
2026-04-21 04:57 0.28724 123.85268 35547 ft 466 kts 180°
2026-04-21 04:57 0.25477 123.85205 35800 ft 465 kts 180°
2026-04-21 04:58 0.22243 123.85142 36051 ft 464 kts 180°
2026-04-21 04:58 0.19014 123.85080 36310 ft 463 kts 180°
2026-04-21 04:58 0.15803 123.85023 36554 ft 462 kts 180°
2026-04-21 04:58 0.12587 123.84968 36789 ft 462 kts 180°
2026-04-21 04:59 0.09374 123.84911 37029 ft 461 kts 180°
2026-04-21 04:59 0.06169 123.84851 37267 ft 460 kts 180°
2026-04-21 04:59 0.02971 123.84803 37502 ft 459 kts 179°
2026-04-21 04:59 -0.00219 123.84755 37708 ft 459 kts 180°
2026-04-21 05:00 -0.03412 123.84720 37842 ft 459 kts 179°
2026-04-21 05:00 -0.12977 123.84625 37866 ft 458 kts 180°
2026-04-21 05:01 -0.19342 123.84562 37859 ft 458 kts 179°
2026-04-21 05:01 -0.25714 123.84497 37860 ft 458 kts 179°
2026-04-21 05:02 -0.32123 123.84431 37865 ft 458 kts 180°
2026-04-21 05:02 -0.38496 123.84350 37851 ft 459 kts 180°
2026-04-21 05:03 -0.44881 123.84266 37858 ft 459 kts 180°
2026-04-21 05:03 -0.51271 123.84184 37858 ft 460 kts 180°
2026-04-21 05:04 -0.57667 123.84097 37863 ft 460 kts 180°
2026-04-21 05:04 -0.64068 123.84011 37861 ft 460 kts 180°
2026-04-21 05:05 -0.70476 123.83934 37865 ft 460 kts 180°
2026-04-21 05:05 -0.76882 123.83859 37867 ft 461 kts 180°
2026-04-21 05:06 -0.83291 123.83783 37868 ft 461 kts 180°
2026-04-21 05:06 -0.89715 123.83702 37865 ft 461 kts 180°
2026-04-21 05:07 -0.96117 123.83624 37872 ft 461 kts 180°
2026-04-21 05:07 -1.02533 123.83561 37871 ft 461 kts 180°
2026-04-21 05:08 -1.08999 123.83506 37873 ft 461 kts 180°
2026-04-21 05:08 -1.15374 123.83446 37868 ft 462 kts 180°
2026-04-21 05:09 -1.21836 123.83161 37868 ft 462 kts 192°
2026-04-21 05:09 -1.24864 123.82133 37865 ft 462 kts 207°
2026-04-21 05:09 -1.27507 123.80336 37859 ft 461 kts 224°
2026-04-21 05:10 -1.29575 123.77905 37856 ft 459 kts 239°
2026-04-21 05:10 -1.31119 123.75118 37850 ft 459 kts 243°
2026-04-21 05:10 -1.34129 123.69476 37847 ft 460 kts 243°
2026-04-21 05:11 -1.37145 123.63828 37853 ft 461 kts 244°
2026-04-21 05:11 -1.40173 123.58162 37854 ft 462 kts 243°
2026-04-21 05:12 -1.43200 123.52487 37860 ft 462 kts 243°
2026-04-21 05:12 -1.46215 123.46824 37868 ft 462 kts 243°
2026-04-21 05:13 -1.49269 123.41116 37866 ft 463 kts 243°
2026-04-21 05:13 -1.52298 123.35441 37868 ft 463 kts 243°
2026-04-21 05:14 -1.55329 123.29748 37873 ft 463 kts 244°
2026-04-21 05:14 -1.58353 123.24068 37871 ft 463 kts 243°
2026-04-21 05:15 -1.61376 123.18394 37883 ft 463 kts 243°
2026-04-21 05:15 -1.64404 123.12720 37885 ft 462 kts 243°
2026-04-21 05:16 -1.67435 123.07054 37877 ft 462 kts 243°
2026-04-21 05:16 -1.70462 123.01382 37887 ft 462 kts 243°
2026-04-21 05:17 -1.73506 122.95676 37875 ft 462 kts 243°
2026-04-21 05:17 -1.76521 122.90008 37866 ft 462 kts 243°
2026-04-21 05:18 -1.79544 122.84333 37870 ft 462 kts 243°
2026-04-21 05:18 -1.82557 122.78675 37878 ft 462 kts 243°
2026-04-21 05:19 -1.85579 122.73006 37872 ft 462 kts 243°
2026-04-21 05:19 -1.88603 122.67342 37873 ft 462 kts 243°
2026-04-21 05:20 -1.91621 122.61670 37872 ft 462 kts 243°
2026-04-21 05:20 -1.94640 122.56007 37865 ft 462 kts 243°
2026-04-21 05:21 -1.97172 122.51261 37863 ft 462 kts 243°
2026-04-21 05:21 -2.00191 122.45594 37864 ft 462 kts 243°
2026-04-21 05:22 -2.03210 122.39933 37865 ft 462 kts 243°
2026-04-21 05:22 -2.06248 122.34227 37873 ft 462 kts 243°
2026-04-21 05:23 -2.09244 122.28597 37877 ft 461 kts 243°
2026-04-21 05:23 -2.12275 122.22903 37863 ft 461 kts 243°
2026-04-21 05:24 -2.15288 122.17240 37864 ft 461 kts 243°
2026-04-21 05:24 -2.18297 122.11585 37865 ft 461 kts 243°
2026-04-21 05:25 -2.21309 122.05931 37881 ft 461 kts 243°
2026-04-21 05:25 -2.24322 122.00275 37874 ft 460 kts 243°
2026-04-21 05:26 -2.27329 121.94618 37868 ft 460 kts 243°
2026-04-21 05:26 -2.30331 121.88958 37853 ft 461 kts 244°
2026-04-21 05:27 -2.33377 121.83254 37860 ft 462 kts 243°
2026-04-21 05:27 -2.36407 121.77582 37872 ft 463 kts 242°
2026-04-21 05:28 -2.39425 121.71897 37890 ft 463 kts 243°
2026-04-21 05:28 -2.43189 121.66700 37875 ft 464 kts 225°
2026-04-21 05:29 -2.48123 121.62536 37875 ft 464 kts 220°
2026-04-21 05:29 -2.53119 121.58446 37882 ft 464 kts 220°
2026-04-21 05:30 -2.58156 121.54322 37893 ft 465 kts 220°
2026-04-21 05:30 -2.63157 121.50219 37878 ft 465 kts 219°
2026-04-21 05:31 -2.68160 121.46117 37877 ft 465 kts 219°
2026-04-21 05:31 -2.73156 121.42021 37879 ft 465 kts 219°
2026-04-21 05:32 -2.78150 121.37913 37869 ft 464 kts 219°
2026-04-21 05:32 -2.83145 121.33817 37870 ft 464 kts 219°
2026-04-21 05:33 -2.88141 121.29728 37872 ft 464 kts 219°
2026-04-21 05:33 -2.93171 121.25602 37865 ft 464 kts 219°
2026-04-21 05:34 -2.98126 121.21534 37866 ft 464 kts 219°
2026-04-21 05:34 -3.03148 121.17419 37870 ft 463 kts 219°
2026-04-21 05:35 -3.08416 121.13759 37868 ft 461 kts 204°
2026-04-21 05:35 -3.14548 121.12016 37862 ft 459 kts 185°
2026-04-21 05:36 -3.20927 121.11979 37856 ft 458 kts 178°
2026-04-21 05:36 -3.27349 121.12092 37870 ft 459 kts 178°
2026-04-21 05:37 -3.33732 121.12203 37881 ft 458 kts 178°
2026-04-21 05:37 -3.40151 121.12314 37889 ft 457 kts 178°
2026-04-21 05:38 -3.46505 121.12420 37886 ft 457 kts 178°
2026-04-21 05:38 -3.52858 121.12529 37888 ft 456 kts 178°
2026-04-21 05:39 -3.59217 121.12635 37885 ft 457 kts 178°
2026-04-21 05:39 -3.65567 121.12735 37883 ft 456 kts 178°
2026-04-21 05:40 -3.71911 121.12843 37874 ft 456 kts 178°
2026-04-21 05:40 -3.78261 121.12947 37880 ft 456 kts 178°
2026-04-21 05:41 -3.84644 121.13053 37869 ft 455 kts 177°
2026-04-21 05:41 -3.90979 121.13161 37861 ft 455 kts 177°
2026-04-21 05:42 -3.97306 121.13274 37853 ft 455 kts 177°
2026-04-21 05:42 -4.03637 121.13385 37850 ft 455 kts 177°
2026-04-21 05:43 -4.09967 121.13496 37842 ft 455 kts 177°
2026-04-21 05:43 -4.16302 121.13612 37838 ft 455 kts 177°
2026-04-21 05:44 -4.22620 121.13720 37841 ft 454 kts 177°
2026-04-21 05:44 -4.28941 121.13819 37829 ft 454 kts 177°
2026-04-21 05:45 -4.35215 121.13174 37827 ft 457 kts 195°
2026-04-21 05:45 -4.38165 121.11993 37828 ft 459 kts 206°
2026-04-21 05:45 -4.40860 121.10262 37828 ft 461 kts 218°
2026-04-21 05:46 -4.44585 121.06383 37817 ft 463 kts 229°
2026-04-21 05:46 -4.48715 121.01429 37812 ft 464 kts 229°
2026-04-21 05:47 -4.52851 120.96464 37816 ft 464 kts 229°
2026-04-21 05:47 -4.56987 120.91489 37818 ft 465 kts 229°
2026-04-21 05:48 -4.61133 120.86522 37839 ft 465 kts 229°
2026-04-21 05:48 -4.64943 120.81256 37841 ft 466 kts 243°
2026-04-21 05:49 -4.67328 120.75220 37836 ft 466 kts 249°
2026-04-21 05:49 -4.69596 120.69133 37836 ft 466 kts 249°
2026-04-21 05:50 -4.71869 120.63041 37839 ft 466 kts 249°
2026-04-21 05:50 -4.74132 120.56950 37834 ft 466 kts 249°
2026-04-21 05:51 -4.76397 120.50858 37839 ft 466 kts 249°
2026-04-21 05:51 -4.78673 120.44772 37827 ft 466 kts 249°
2026-04-21 05:52 -4.80941 120.38692 37834 ft 465 kts 249°
2026-04-21 05:52 -4.83195 120.32614 37841 ft 465 kts 249°
2026-04-21 05:53 -4.85454 120.26535 37841 ft 465 kts 249°
2026-04-21 05:53 -4.87719 120.20462 37844 ft 465 kts 249°
2026-04-21 05:54 -4.89982 120.14391 37855 ft 465 kts 249°
2026-04-21 05:54 -4.92238 120.08314 37854 ft 465 kts 249°
2026-04-21 05:55 -4.94508 120.02181 37054 ft 469 kts 250°
2026-04-21 05:55 -4.95272 119.99019 36587 ft 463 kts 260°
2026-04-21 05:55 -4.95959 119.95913 36393 ft 451 kts 255°
2026-04-21 05:56 -4.96651 119.92819 35468 ft 461 kts 263°
2026-04-21 05:56 -4.96603 119.89582 34324 ft 472 kts 283°
2026-04-21 05:56 -4.95411 119.86513 33311 ft 476 kts 304°
2026-04-21 05:56 -4.93204 119.84093 32716 ft 467 kts 324°
2026-04-21 05:57 -4.90432 119.82441 32124 ft 460 kts 338°
2026-04-21 05:57 -4.87416 119.81452 31551 ft 453 kts 351°
2026-04-21 05:57 -4.84308 119.81161 31003 ft 446 kts
2026-04-21 05:57 -4.81245 119.81675 30479 ft 439 kts 19°
2026-04-21 05:58 -4.78494 119.82958 29952 ft 434 kts 33°
2026-04-21 05:58 -4.76189 119.84886 29339 ft 431 kts 48°
2026-04-21 05:58 -4.74461 119.87265 28722 ft 428 kts 61°
2026-04-21 05:58 -4.73132 119.89963 28115 ft 424 kts 66°
2026-04-21 05:59 -4.72004 119.92686 27546 ft 421 kts 69°
2026-04-21 05:59 -4.70999 119.95430 27010 ft 417 kts 70°
2026-04-21 05:59 -4.70052 119.98167 26450 ft 414 kts 71°
2026-04-21 06:00 -4.68478 120.03649 25394 ft 407 kts 84°
2026-04-21 06:00 -4.68473 120.06466 24909 ft 403 kts 97°
2026-04-21 06:00 -4.69093 120.09227 24384 ft 400 kts 109°
2026-04-21 06:00 -4.70294 120.11723 23854 ft 398 kts 122°
2026-04-21 06:01 -4.72034 120.13865 23357 ft 396 kts 135°
2026-04-21 06:01 -4.74207 120.15539 22799 ft 394 kts 148°
2026-04-21 06:01 -4.76698 120.16677 22278 ft 393 kts 161°
2026-04-21 06:01 -4.79364 120.17225 21758 ft 392 kts 174°
2026-04-21 06:02 -4.82083 120.17168 21267 ft 391 kts 187°
2026-04-21 06:02 -4.84708 120.16504 20790 ft 390 kts 200°
2026-04-21 06:02 -4.87122 120.15266 20303 ft 390 kts 213°
2026-04-21 06:02 -4.89220 120.13494 19832 ft 389 kts 226°
2026-04-21 06:03 -4.90841 120.11340 19380 ft 388 kts 239°
2026-04-21 06:03 -4.92072 120.08940 18920 ft 387 kts 245°
2026-04-21 06:03 -4.93118 120.06461 18493 ft 385 kts 248°
2026-04-21 06:03 -4.94041 120.03951 18060 ft 383 kts 250°
2026-04-21 06:04 -4.94907 120.01456 17577 ft 381 kts 250°
2026-04-21 06:04 -4.95774 119.98957 17123 ft 379 kts 250°
2026-04-21 06:04 -4.96587 119.96419 16662 ft 376 kts 259°
2026-04-21 06:04 -4.96734 119.93825 16207 ft 372 kts 277°
2026-04-21 06:05 -4.96101 119.91342 15779 ft 367 kts 295°
2026-04-21 06:05 -4.94759 119.89197 15354 ft 362 kts 313°
2026-04-21 06:05 -4.92858 119.87589 14935 ft 356 kts 331°
2026-04-21 06:05 -4.90602 119.86640 14531 ft 350 kts 348°
2026-04-21 06:06 -4.88208 119.86405 14131 ft 345 kts
2026-04-21 06:06 -4.85877 119.86876 13757 ft 339 kts 22°
2026-04-21 06:06 -4.83782 119.87996 13317 ft 335 kts 38°
2026-04-21 06:06 -4.82121 119.89645 12871 ft 332 kts 54°
2026-04-21 06:07 -4.80973 119.91636 12467 ft 329 kts 65°
2026-04-21 06:07 -4.80074 119.93702 12336 ft 317 kts 68°
2026-04-21 06:07 -4.79302 119.95737 12211 ft 307 kts 70°
2026-04-21 06:07 -4.78653 119.97734 12064 ft 298 kts 78°
2026-04-21 06:08 -4.78555 119.99791 11796 ft 295 kts 95°
2026-04-21 06:08 -4.78992 120.01785 11509 ft 293 kts 108°
2026-04-21 06:08 -4.79861 120.03641 11173 ft 294 kts 120°
2026-04-21 06:08 -4.81140 120.05243 10849 ft 295 kts 134°
2026-04-21 06:09 -4.82769 120.06487 10491 ft 296 kts 149°
2026-04-21 06:09 -4.84696 120.07286 10161 ft 298 kts 163°
2026-04-21 06:09 -4.86741 120.07557 9920 ft 296 kts 179°
2026-04-21 06:09 -4.88804 120.07302 9872 ft 302 kts 193°
2026-04-21 06:10 -4.90765 120.06538 9778 ft 304 kts 208°
2026-04-21 06:10 -4.92468 120.05293 9670 ft 303 kts 224°
2026-04-21 06:10 -4.93789 120.03652 9527 ft 303 kts 239°
2026-04-21 06:10 -4.94454 120.02394 9460 ft 303 kts 245°
2026-04-21 06:11 -4.95124 120.00401 9327 ft 302 kts 263°
2026-04-21 06:11 -4.95065 119.98321 9199 ft 298 kts 284°
2026-04-21 06:11 -4.94276 119.96400 9073 ft 294 kts 305°
2026-04-21 06:11 -4.92902 119.94913 8950 ft 291 kts 324°
2026-04-21 06:12 -4.91297 119.93674 8825 ft 291 kts 324°
2026-04-21 06:12 -4.89699 119.92442 8701 ft 289 kts 324°
2026-04-21 06:12 -4.88104 119.91209 8572 ft 289 kts 324°
2026-04-21 06:12 -4.86513 119.89977 8449 ft 289 kts 324°
2026-04-21 06:13 -4.84918 119.88745 8328 ft 289 kts 324°
2026-04-21 06:13 -4.83329 119.87519 8201 ft 288 kts 323°
2026-04-21 06:13 -4.81744 119.86293 8087 ft 287 kts 324°
2026-04-21 06:13 -4.80160 119.85069 7963 ft 287 kts 324°
2026-04-21 06:14 -4.78587 119.83850 8001 ft 286 kts 324°
2026-04-21 06:14 -4.77007 119.82627 8000 ft 286 kts 324°
2026-04-21 06:14 -4.75422 119.81403 7996 ft 289 kts 324°
2026-04-21 06:14 -4.73828 119.80173 7991 ft 290 kts 325°
2026-04-21 06:15 -4.72205 119.78920 7992 ft 290 kts 323°
2026-04-21 06:15 -4.70604 119.77686 7998 ft 290 kts 325°
2026-04-21 06:15 -4.69006 119.76452 7997 ft 290 kts 325°
2026-04-21 06:15 -4.67468 119.75181 7985 ft 292 kts 314°
2026-04-21 06:16 -4.66490 119.73394 7994 ft 298 kts 284°
2026-04-21 06:16 -4.66499 119.71306 7753 ft 300 kts 253°
2026-04-21 06:16 -4.67497 119.69498 7348 ft 297 kts 232°
2026-04-21 06:16 -4.68741 119.67869 7023 ft 293 kts 231°
2026-04-21 06:17 -4.69979 119.66241 6652 ft 292 kts 232°
2026-04-21 06:17 -4.71360 119.64783 6335 ft 286 kts 215°
2026-04-21 06:17 -4.73060 119.63860 6202 ft 271 kts 196°
2026-04-21 06:17 -4.74839 119.63502 6053 ft 251 kts 180°
2026-04-21 06:18 -4.76508 119.63627 5878 ft 229 kts 168°
2026-04-21 06:18 -4.78024 119.63838 5729 ft 212 kts 169°
2026-04-21 06:18 -4.79507 119.64042 5181 ft 218 kts 170°
2026-04-21 06:18 -4.81034 119.64250 4626 ft 225 kts 170°
2026-04-21 06:19 -4.82596 119.64463 4037 ft 228 kts 170°
2026-04-21 06:19 -4.84184 119.64679 3672 ft 222 kts 171°
2026-04-21 06:19 -4.85667 119.64882 3506 ft 211 kts 171°
2026-04-21 06:19 -4.87094 119.65079 3395 ft 205 kts 171°
2026-04-21 06:20 -4.88488 119.65271 3296 ft 201 kts 171°
2026-04-21 06:20 -4.89882 119.65288 3200 ft 199 kts 189°
2026-04-21 06:20 -4.91166 119.64828 3062 ft 195 kts 210°
2026-04-21 06:20 -4.92310 119.64154 2907 ft 187 kts 210°
2026-04-21 06:21 -4.93474 119.63481 2735 ft 178 kts 210°
2026-04-21 06:21 -4.94529 119.62874 2590 ft 172 kts 210°
2026-04-21 06:21 -4.95558 119.62283 2456 ft 170 kts 210°
2026-04-21 06:21 -4.96582 119.61693 2257 ft 169 kts 210°
2026-04-21 06:22 -4.97594 119.61110 2062 ft 167 kts 211°
2026-04-21 06:22 -4.98584 119.60540 1855 ft 162 kts 211°
2026-04-21 06:22 -4.99529 119.59996 1663 ft 152 kts 211°
2026-04-21 06:22 -5.00406 119.59490 1495 ft 146 kts 212°
2026-04-21 06:23 -5.01311 119.58968 1308 ft 143 kts 213°
2026-04-21 06:23 -5.02174 119.58471 1109 ft 142 kts 213°
2026-04-21 06:23 -5.03043 119.57970 916 ft 142 kts 214°
2026-04-21 06:23 -5.03896 119.57478 721 ft 142 kts 212°
2026-04-21 06:24 -5.04761 119.56980 523 ft 142 kts 213°
2026-04-21 06:24 -5.05628 119.56480 361 ft 142 kts 211°
2026-04-21 06:24 -5.06484 119.55987 175 ft 139 kts 214°
2026-04-21 06:24 -5.07077 119.55645 45 ft 137 kts 212°
2026-04-21 06:25 -5.07799 119.55228 42 ft 92 kts 210°
2026-04-21 06:25 -5.08211 119.54987 39 ft 42 kts 211°
2026-04-21 06:25 -5.08378 119.54887 40 ft 25 kts 210°
2026-04-21 06:25 -5.08513 119.54786 41 ft 25 kts 233°
2026-04-21 06:26 -5.08573 119.54693 41 ft 7 kts 238°
2026-04-21 06:26 -5.08601 119.54645 42 ft 9 kts 239°
2026-04-21 06:26 -5.08607 119.54581 42 ft 11 kts 286°
2026-04-21 06:26 -5.08554 119.54582 41 ft 9 kts 30°
2026-04-21 06:27 -5.08504 119.54618 41 ft 11 kts 36°
2026-04-21 06:27 -5.08425 119.54664 41 ft 13 kts 29°
2026-04-21 06:27 -5.08348 119.54709 41 ft 12 kts 31°
2026-04-21 06:27 -5.08278 119.54750 41 ft 11 kts 30°
2026-04-21 06:28 -5.08211 119.54788 41 ft 10 kts 30°
2026-04-21 06:28 -5.08150 119.54823 41 ft 10 kts 30°
2026-04-21 06:28 -5.08091 119.54846 41 ft 8 kts
2026-04-21 06:28 -5.08050 119.54817 41 ft 8 kts 304°
2026-04-21 06:29 -5.08016 119.54757 41 ft 11 kts 300°
2026-04-21 06:29 -5.07969 119.54700 41 ft 10 kts 352°
2026-04-21 06:29 -5.07918 119.54742 41 ft 9 kts 48°
2026-04-21 06:29 -5.07872 119.54782 41 ft 8 kts 30°
2026-04-21 06:30 -5.07820 119.54813 41 ft 12 kts 30°
2026-04-21 06:30 -5.07750 119.54851 41 ft 11 kts 27°
2026-04-21 06:30 -5.07690 119.54852 41 ft 8 kts 302°
2026-04-21 06:30 -5.07667 119.54811 40 ft 6 kts 301°
2026-04-21 06:31 -5.07662 119.54802 41 ft 0 kts 300°
2026-04-21 06:31 -5.07654 119.54788 41 ft 0 kts 300°
2026-04-21 06:35 -5.07660 119.54798 41 ft 0 kts 300°